N1IER Weather Reports


time (UTC)temp
F
wind
direction
speed
knots
gust
knots
rain 1hr
in
rain 24hr
in
rain mn
in
humidity
%
barometer
mb
20260507060033 55 215 0.0 1.7 0.00 0.18 0.00 93 1006.2
20260507054511 55 253 0.0 1.7 0.00 0.18 0.00 93 1006.5
20260507053016 55 259 0.0 2.6 0.00 0.18 0.00 93 1006.6
20260507051520 55 243 0.0 3.5 0.00 0.18 0.00 93 1006.7
20260507050026 55 216 0.0 1.7 0.00 0.18 0.00 93 1006.9
20260507044527 55 230 0.0 3.5 0.00 0.18 0.00 93 1007.0
20260507043014 55 211 0.9 3.5 0.00 0.18 0.00 93 1006.7
20260507041517 55 205 0.0 2.6 0.00 0.18 0.00 93 1006.6
20260507040024 55 213 0.0 2.6 0.00 0.18 0.00 93 1006.6
20260507034533 55 187 0.0 2.6 0.00 0.18 0.18 93 1006.8
20260507033009 55 205 0.9 2.6 0.00 0.18 0.18 93 1007.1
20260507031516 55 168 0.0 2.6 0.00 0.18 0.18 93 1006.9
20260507030018 55 215 0.0 2.6 0.00 0.18 0.18 93 1006.8
20260507024525 56 161 0.9 5.2 0.00 0.18 0.18 93 1006.7
20260507023027 56 180 0.0 4.3 0.00 0.18 0.18 93 1006.8
20260507021518 56 206 0.0 4.3 0.00 0.18 0.18 93 1006.9
20260507020017 55 250 0.9 7.0 0.00 0.18 0.18 93 1007.2
20260507014522 55 192 0.0 5.2 0.00 0.18 0.18 93 1007.4
20260507013004 55 218 0.9 7.0 0.00 0.18 0.18 92 1007.6
20260507011510 55 219 0.9 5.2 0.00 0.18 0.18 93 1007.7
20260507010012 56 204 0.9 8.7 0.00 0.18 0.18 93 1007.9
20260507004528 56 189 0.9 5.2 0.00 0.18 0.18 92 1007.7
20260507003027 56 294 0.9 7.0 0.01 0.18 0.18 92 1007.8
20260507001508 56 199 0.9 8.7 0.01 0.18 0.18 92 1007.7
20260507000012 56 184 2.6 7.8 0.02 0.18 0.18 92 1007.7
20260506234523 56 173 3.5 11.3 0.04 0.18 0.18 92 1007.7
20260506233022 56 136 0.0 5.2 0.06 0.17 0.17 92 1007.7
20260506231527 56 286 0.9 6.1 0.10 0.17 0.17 92 1007.7
20260506224526 56 196 0.9 7.0 0.10 0.14 0.14 92 1007.5
20260506223018 56 175 1.7 8.7 0.08 0.11 0.11 91 1007.4
20260506221522 57 210 1.7 7.8 0.04 0.07 0.07 91 1007.7
20260506220026 57 126 0.9 14.8 0.02 0.04 0.04 91 1008.2
20260506214523 57 192 1.7 9.6 0.02 0.04 0.04 90 1008.1
20260506213014 57 239 4.3 10.4 0.01 0.03 0.03 90 1008.2
20260506211527 58 188 2.6 13.0 0.01 0.03 0.03 89 1008.3
20260506210024 59 207 1.7 7.0 0.01 0.02 0.02 87 1008.5
20260506204526 59 254 1.7 13.9 0.02 0.02 0.02 86 1008.6
20260506203012 59 175 1.7 13.0 0.02 0.02 0.02 86 1008.7
20260506201518 59 180 3.5 7.8 0.02 0.02 0.02 88 1008.7
20260506200021 59 173 3.5 10.4 0.01 0.01 0.01 86 1008.9
20260506194524 60 278 1.7 12.2 0.00 0.00 0.00 83 1009.3
20260506193010 61 248 2.6 10.4 0.00 0.00 0.00 79 1009.1
20260506191523 61 233 3.5 16.5 0.00 0.00 0.00 78 1009.3
20260506190021 62 174 1.7 11.3 0.00 0.00 0.00 78 1009.4
20260506184531 62 186 5.2 19.1 0.00 0.00 0.00 77 1009.3
20260506183026 63 263 2.6 12.2 0.00 0.00 0.00 77 1009.6
20260506181524 63 209 4.3 15.6 0.00 0.00 0.00 76 1009.6
20260506180024 63 287 4.3 19.1 0.00 0.00 0.00 76 1009.8
20260506174521 64 183 4.3 15.6 0.00 0.00 0.00 74 1009.8
20260506173023 65 252 2.6 17.4 0.00 0.00 0.00 74 1010.3
20260506171536 66 306 3.5 10.4 0.00 0.00 0.00 74 1009.9
20260506170015 65 242 3.5 13.0 0.00 0.00 0.00 75 1010.3
20260506164528 65 109 3.5 9.6 0.00 0.00 0.00 75 1010.7
20260506163023 65 209 2.6 10.4 0.00 0.00 0.00 74 1010.9
20260506161509 66 160 3.5 12.2 0.00 0.00 0.00 73 1011.1
20260506160012 66 330 3.5 17.4 0.00 0.00 0.00 72 1011.2
20260506154529 66 288 6.1 13.9 0.00 0.00 0.00 71 1011.2
20260506153022 68 130 1.7 7.8 0.00 0.00 0.00 72 1011.3
20260506151535 65 256 5.2 18.2 0.00 0.00 0.00 75 1011.3
20260506150008 66 192 2.6 12.2 0.00 0.00 0.00 74 1011.5
20260506144527 64 190 3.5 13.9 0.00 0.00 0.00 76 1011.2
20260506143020 64 223 4.3 14.8 0.00 0.00 0.00 75 1011.3
20260506141522 64 280 3.5 14.8 0.00 0.00 0.00 75 1011.1
20260506140029 64 217 3.5 11.3 0.00 0.00 0.00 75 1011.4
20260506134510 63 182 2.6 11.3 0.00 0.00 0.00 78 1011.6
20260506133038 63 231 2.6 11.3 0.00 0.00 0.00 78 1011.9
20260506131531 62 185 3.5 13.9 0.00 0.00 0.00 80 1011.8
20260506130023 62 205 4.3 11.3 0.00 0.00 0.00 80 1011.8
20260506124509 61 175 2.6 8.7 0.00 0.00 0.00 82 1011.6
20260506123014 60 212 2.6 18.2 0.00 0.00 0.00 83 1011.8
20260506121530 59 169 1.7 8.7 0.00 0.00 0.00 85 1011.9
20260506120035 59 167 3.5 10.4 0.00 0.00 0.00 85 1012.0
20260506114528 59 199 0.0 12.2 0.00 0.00 0.00 85 1012.0
20260506113012 58 286 2.6 10.4 0.00 0.00 0.00 86 1012.2
20260506111516 58 234 2.6 10.4 0.00 0.00 0.00 86 1012.3
20260506110022 58 266 2.6 9.6 0.00 0.00 0.00 86 1012.1
20260506104526 58 211 1.7 9.6 0.00 0.00 0.00 87 1011.9
20260506103031 57 194 1.7 8.7 0.00 0.00 0.00 87 1012.0
20260506101517 58 218 1.7 13.0 0.00 0.00 0.00 87 1011.8
20260506100028 58 152 4.3 11.3 0.00 0.00 0.00 88 1011.7
20260506094525 57 155 1.7 7.8 0.00 0.00 0.00 88 1011.5
20260506093026 57 184 2.6 13.9 0.00 0.00 0.00 88 1011.8
20260506091528 57 176 3.5 13.0 0.00 0.00 0.00 88 1011.7
20260506090017 57 171 1.7 7.8 0.00 0.00 0.00 88 1012.0
20260506084525 57 189 3.5 9.6 0.00 0.00 0.00 88 1012.1
20260506083028 57 196 1.7 6.1 0.00 0.00 0.00 87 1012.3
20260506081528 57 197 2.6 7.8 0.00 0.00 0.00 87 1012.3
20260506073023 58 180 2.6 9.6 0.00 0.00 0.00 86 1012.1
20260506071526 58 192 3.5 11.3 0.00 0.00 0.00 86 1012.1
20260506061526 58 162 2.6 13.0 0.00 0.00 0.00 85 1011.8